Weather History for McCook, NE

Change the Weather History Date:

Sunday, November 13, 2011

  Actual Average Record
Temperature  
Mean Temperature 44 °F 39 °F  
Max Temperature 58 °F 54 °F 82 °F (1999)
Min Temperature 29 °F 25 °F -6 °F (1986)
Degree Days  
Heating Degree Days 20    
Moisture  
Dew Point 21 °F    
Average Humidity 40    
Maximum Humidity 78    
Minimum Humidity 20    
Precipitation  
Precipitation T in 0.03 in 0.80 in (1972)
Month to date precipitation 0.11 0.48  
Year to date precipitation 19.03 21.42  
Sea Level Pressure  
Sea Level Pressure 29.54 in    
Wind  
Wind Speed 13 mph (WNW)    
Max Wind Speed 29 mph    
Max Gust Speed 38 mph    
Visibility 10 miles    
Events      
T = Trace of Precipitation, MM = Missing Value Source: NWS Daily Summary

Daily Weather History Graph

Daily Weather History Graph

Search for Another Location

Airport:

Trip Planner

Search our weather history database for the weather conditions in past years. The results will help you decide how hot, cold, wet, or windy it might be!

Date:

Astronomy

Nov. 13, 2011 Rise Set
Actual Time 7:25 AM CST 5:27 PM CST
Civil Twilight 6:56 AM CST 5:56 PM CST
Nautical Twilight 6:23 AM CST 6:29 PM CST
Astronomical Twilight 5:51 AM CST 7:01 PM CST
Moon 7:37 PM CST (11/13) 9:59 AM CST (11/13)
Length of Visible Light 10h 59m
Length of Day
10h 01m
Waning Gibbous, 92% of the Moon is Illuminated
Nov 13
Waning Gibbous
Nov 18
Last Quarter
Nov 25
New
Dec 2
First Quarter
Dec 10
Full

Hourly Weather History & Observations

Time (CST) Temp. Windchill Dew Point Humidity Pressure Visibility Wind Dir Wind Speed Gust Speed Precip Events Conditions
12:53 AM 53.1 °F - 34.0 °F 48% 29.39 in 10.0 mi NNW 19.6 mph - 0.00 in   Mostly Cloudy
1:53 AM 48.0 °F - 21.0 °F 34% 29.43 in 10.0 mi North - - N/A   Clear
2:53 AM 48.0 °F - 8.1 °F 20% 29.41 in 10.0 mi WNW 17.3 mph 23.0 mph N/A   Clear
3:53 AM 46.9 °F - 8.1 °F 21% 29.40 in 10.0 mi NW 26.5 mph 34.5 mph N/A   Clear
4:53 AM 45.0 °F 35.4 °F 12.9 °F 27% 29.42 in 10.0 mi NW 28.8 mph 38.0 mph N/A   Clear
5:53 AM 43.0 °F 34.8 °F 12.9 °F 30% 29.49 in 10.0 mi NW 18.4 mph 26.5 mph N/A   Clear
6:53 AM 42.1 °F 35.2 °F 15.1 °F 34% 29.53 in 10.0 mi WNW 12.7 mph - N/A   Clear
7:53 AM 41.0 °F 35.8 °F 17.1 °F 38% 29.57 in 10.0 mi West 8.1 mph - N/A   Clear
8:53 AM 44.1 °F 40.8 °F 18.0 °F 35% 29.57 in 10.0 mi WNW 5.8 mph - N/A   Clear
9:53 AM 46.0 °F 41.0 °F 19.9 °F 35% 29.58 in 10.0 mi NNW 10.4 mph - N/A   Clear
10:53 AM 48.0 °F - 19.0 °F 32% 29.60 in 10.0 mi NW 5.8 mph - N/A   Partly Cloudy
11:53 AM 51.1 °F - 19.0 °F 28% 29.57 in 10.0 mi NW 8.1 mph - N/A   Clear
12:53 PM 53.1 °F - 21.0 °F 29% 29.57 in 10.0 mi West 9.2 mph - N/A   Clear
1:53 PM 54.0 °F - 25.0 °F 33% 29.55 in 10.0 mi West 6.9 mph - N/A   Clear
2:53 PM 55.0 °F - 27.0 °F 34% 29.53 in 10.0 mi WNW 8.1 mph - N/A   Clear
3:53 PM 53.1 °F - 26.1 °F 35% 29.55 in 10.0 mi SSW 4.6 mph - N/A   Clear
4:53 PM 51.1 °F - 26.1 °F 38% 29.57 in 10.0 mi SW 6.9 mph - N/A   Scattered Clouds
5:53 PM 50.0 °F - 25.0 °F 38% 29.57 in 10.0 mi Calm Calm - N/A   Scattered Clouds
6:53 PM 48.0 °F - 25.0 °F 41% 29.59 in 10.0 mi Calm Calm - N/A   Clear
7:53 PM 41.0 °F - 25.0 °F 53% 29.61 in 10.0 mi Calm Calm - N/A   Clear
8:53 PM 35.1 °F 30.1 °F 25.0 °F 67% 29.62 in 10.0 mi North 5.8 mph - N/A   Scattered Clouds
9:53 PM 36.0 °F 29.6 °F 24.1 °F 62% 29.61 in 10.0 mi NNW 8.1 mph - N/A   Clear
10:53 PM 34.0 °F 28.8 °F 24.1 °F 67% 29.63 in 10.0 mi NW 5.8 mph - N/A   Clear
11:53 PM 28.9 °F 22.8 °F 23.0 °F 78% 29.66 in 10.0 mi WNW 5.8 mph - N/A   Clear